Location: Saratoga Springs
(43.0831°N, 73.7850°W)
Time: 08:18:12
(UTC-04:00)

Vanguard 2 Rocket - Pass Details

Date: 17 April 2024
Orbit: 556 x 3304 km, 32.9° (Epoch: 22 May)

Event Time Altitude Azimuth Distance (km) Brightness Sun altitude
Rises 04:18:19 0° 277° (W) 7,267 11.1 -19.0°
Reaches altitude 10° 04:23:51 10° 271° (W) 6,114 10.6 -18.2°
Maximum altitude 04:40:00 40° 212° (SSW) 3,340 9.3 -15.7°
Drops below altitude 10° 04:50:50 10° 148° (SSE) 4,138 10.3 -14.0°
Sets 04:53:48 0° 140° (SE) 4,794 10.7 -13.5°
